Pompano Beach, FL

9:03 AM EDT on May 28, 2017 (GMT -0400)
Pompano Beach

Weather History for KPMP - April, 2013

Change the Weather History Date:

Sunday, April 21, 2013

  Actual Average Record
Temperature  
Mean Temperature 78 °F -  
Max Temperature 84 °F 85 °F 92 °F (1988)
Min Temperature 73 °F 66 °F 51 °F (1953)
Cooling Degree Days 12    
Growing Degree Days 28 (Base 50)    
Moisture  
Dew Point 73 °F    
Average Humidity 90    
Maximum Humidity 100    
Minimum Humidity 71    
Precipitation  
Precipitation 0.01 in - - ()
Sea Level Pressure  
Sea Level Pressure 30.05 in    
Wind  
Wind Speed 6 mph (NNE)    
Max Wind Speed 16 mph    
Max Gust Speed 23 mph    
Visibility 10 miles    
Events Rain    
Averages and records for this station are not official NWS values.
T = Trace of Precipitation, MM = Missing Value Source: NWS Daily Summary

Daily Weather History Graph

Daily Weather History Graph

Search for Another Location

Airport or City:

Trip Planner

Search our weather history database for the weather conditions in past years. The results will help you decide how hot, cold, wet, or windy it might be!

Date:

Astronomy

Apr. 21, 2013 Rise Set
Actual Time 6:51 AM EDT 7:47 PM EDT
Civil Twilight 6:27 AM EDT 8:11 PM EDT
Nautical Twilight 5:59 AM EDT 8:39 PM EDT
Astronomical Twilight 5:30 AM EDT 9:08 PM EDT
Moon 3:53 PM EDT (4/21) 3:47 AM EDT (4/21)
Length of Visible Light 13h 43m
Length of Day
12h 56m
Waxing Gibbous, 79% of the Moon is Illuminated
Apr 21
Waxing Gibbous
Apr 25
Full
May 2
Last Quarter
May 9
New
May 18
First Quarter

Hourly Weather History & Observations

Time (EDT) Temp. Heat Index Dew Point Humidity Pressure Visibility Wind Dir Wind Speed Gust Speed Precip Events Conditions
12:35 AM 75.2 °F - 75.2 °F 100% 30.08 in 10.0 mi Calm Calm - N/A   Overcast
12:53 AM 75.0 °F - 75.0 °F 100% 30.09 in 10.0 mi West 3.5 mph - N/A   Overcast
1:24 AM 75.2 °F - 75.2 °F 100% 30.07 in 10.0 mi WNW 3.5 mph - 0.00 in   Mostly Cloudy
1:53 AM 73.9 °F - 73.9 °F 100% 30.07 in 10.0 mi NW 5.8 mph - 0.00 in   Mostly Cloudy
2:15 AM 73.4 °F - 73.4 °F 100% 30.06 in 10.0 mi NNW 8.1 mph - N/A   Scattered Clouds
2:53 AM 73.0 °F - 73.0 °F 100% 30.05 in 10.0 mi NW 5.8 mph - N/A   Scattered Clouds
3:53 AM 73.0 °F - 73.0 °F 100% 30.04 in 10.0 mi NNW 3.5 mph - N/A   Clear
4:53 AM 73.0 °F - 72.0 °F 96% 30.02 in 10.0 mi North 4.6 mph - N/A   Clear
5:53 AM 73.0 °F - 72.0 °F 96% 30.01 in 10.0 mi North 3.5 mph - N/A   Clear
6:25 AM 73.4 °F - 73.4 °F 100% 30.03 in 10.0 mi North 9.2 mph - N/A   Mostly Cloudy
6:42 AM 73.4 °F - 73.4 °F 100% 30.04 in 10.0 mi North 10.4 mph - N/A   Partly Cloudy
6:53 AM 73.0 °F - 73.0 °F 100% 30.05 in 10.0 mi NNW 10.4 mph - N/A   Partly Cloudy
7:01 AM 73.4 °F - 73.4 °F 100% 30.06 in 10.0 mi NNW 11.5 mph - N/A   Mostly Cloudy
7:38 AM 73.4 °F - 71.6 °F 94% 30.06 in 10.0 mi North 9.2 mph - 0.00 in Rain Light Rain
7:53 AM 73.0 °F - 72.0 °F 96% 30.06 in 8.0 mi North 8.1 mph - 0.00 in Rain Light Rain
8:53 AM 75.9 °F - 72.0 °F 87% 30.07 in 10.0 mi North 6.9 mph - 0.00 in   Partly Cloudy
9:53 AM 78.1 °F - 73.9 °F 87% 30.09 in 10.0 mi ENE 8.1 mph - N/A   Scattered Clouds
10:53 AM 78.1 °F - 72.0 °F 81% 30.10 in 10.0 mi ESE 13.8 mph - N/A   Mostly Cloudy
11:53 AM 80.1 °F 83.2 °F 70.0 °F 71% 30.10 in 10.0 mi ESE 15.0 mph - N/A   Clear
12:53 PM 81.0 °F 85.8 °F 73.0 °F 77% 30.10 in 10.0 mi ESE 15.0 mph 23.0 mph N/A   Scattered Clouds
1:53 PM 82.0 °F 86.7 °F 72.0 °F 71% 30.07 in 10.0 mi ESE 16.1 mph - N/A   Scattered Clouds
2:53 PM 82.0 °F 86.7 °F 72.0 °F 71% 30.05 in 10.0 mi SE 13.8 mph - N/A   Partly Cloudy
3:53 PM 81.0 °F 84.9 °F 71.1 °F 72% 30.01 in 10.0 mi SE 13.8 mph - N/A   Clear
4:53 PM 79.0 °F - 72.0 °F 79% 30.01 in 10.0 mi SE 9.2 mph - N/A   Scattered Clouds
5:53 PM 79.0 °F - 73.0 °F 82% 30.03 in 10.0 mi South 5.8 mph - 0.00 in Rain Light Rain
6:01 PM 78.8 °F - 73.4 °F 83% 30.02 in 10.0 mi SSE 6.9 mph - 0.00 in   Mostly Cloudy
6:27 PM 78.8 °F - 73.4 °F 83% 30.03 in 10.0 mi SE 8.1 mph - 0.00 in   Scattered Clouds
6:53 PM 79.0 °F - 73.0 °F 82% 30.04 in 10.0 mi SSE 6.9 mph - 0.00 in   Scattered Clouds
7:53 PM 78.1 °F - 72.0 °F 81% 30.05 in 10.0 mi SSW 6.9 mph - 0.00 in Rain Light Rain
8:53 PM 77.0 °F - 73.9 °F 90% 30.04 in 10.0 mi South 3.5 mph - 0.01 in Rain Light Rain
9:53 PM 75.9 °F - 75.0 °F 97% 30.06 in 10.0 mi Calm Calm - 0.00 in   Clear
10:53 PM 75.9 °F - 75.0 °F 97% 30.06 in 10.0 mi North 3.5 mph - N/A   Clear
11:53 PM 75.0 °F - 73.9 °F 96% 30.06 in 10.0 mi NNW 4.6 mph - N/A   Clear